Change the Weather History Date:

Saturday, March 15, 2014

  Actual Average Record
Temperature  
Mean Temperature 58 °F 52 °F  
Max Temperature 76 °F 64 °F 85 °F (1972)
Min Temperature 39 °F 40 °F 30 °F (2002)
Degree Days  
Heating Degree Days 7    
Month to date heating degree days 123  
Since 1 July heating degree days 2330  
Cooling Degree Days 0    
Month to date cooling degree days 0  
Year to date cooling degree days 0  
Growing Degree Days 7 (Base 50)    
Moisture  
Dew Point 46 °F    
Average Humidity 67    
Maximum Humidity 100    
Minimum Humidity 33    
Precipitation  
Precipitation 0.00 in - 1.81 in (1952)
Month to date precipitation 0.41  
Year to date precipitation 5.17  
Since 1 July precipitation 7.37  
Sea Level Pressure  
Sea Level Pressure 30.24 in    
Wind  
Wind Speed 4 mph (SSW)    
Max Wind Speed 15 mph    
Max Gust Speed 18 mph    
Visibility 8 miles    
Events Fog    
T = Trace of Precipitation, MM = Missing Value Source: NWS Daily Summary

Daily Weather History Graph

Daily Weather History Graph

Search for Another Location

Airport or City:

Trip Planner

Search our weather history database for the weather conditions in past years. The results will help you decide how hot, cold, wet, or windy it might be!

Date:

Astronomy

Mar. 15, 2014 Rise Set
Actual Time 7:20 AM PDT 7:16 PM PDT
Civil Twilight 6:53 AM PDT 7:42 PM PDT
Nautical Twilight 6:23 AM PDT 8:13 PM PDT
Astronomical Twilight 5:52 AM PDT 8:44 PM PDT
Moon 6:41 PM PDT (3/15) 6:34 AM PDT (3/15)
Length of Visible Light 12h 48m
Length of Day
11h 56m
Waxing Gibbous, 99% of the Moon is Illuminated
Mar 15
Waxing Gibbous
Mar 16
Full
Mar 23
Last Quarter
Mar 30
New
Apr 7
First Quarter

Hourly Weather History & Observations

Time (PDT) Temp. Windchill Dew Point Humidity Pressure Visibility Wind Dir Wind Speed Gust Speed Precip Events Conditions
12:54 AM 48.0 °F - 45.0 °F 89% 30.20 in 10.0 mi Calm Calm - N/A   Clear
1:54 AM 46.0 °F 44.8 °F 45.0 °F 96% 30.20 in 10.0 mi SE 3.5 mph - N/A   Clear
2:54 AM 45.0 °F - 44.1 °F 97% 30.21 in 10.0 mi Calm Calm - N/A   Clear
3:54 AM 44.1 °F - 44.1 °F 100% 30.21 in 10.0 mi Calm Calm - N/A   Clear
4:54 AM 43.0 °F - 43.0 °F 100% 30.22 in 10.0 mi Calm Calm - N/A   Clear
5:54 AM 43.0 °F - 42.1 °F 97% 30.22 in 10.0 mi Calm Calm - N/A   Clear
6:54 AM 41.0 °F - 41.0 °F 100% 30.24 in 7.0 mi Calm Calm - N/A   Clear
7:13 AM 39.9 °F - 39.9 °F 100% 30.27 in 1.2 mi Calm Calm - N/A   Partly Cloudy
7:17 AM 41.0 °F - 41.0 °F 100% 30.27 in 0.8 mi Calm Calm - N/A   Mist
7:24 AM 39.9 °F - 39.0 °F 97% 30.27 in 0.2 mi Calm Calm - N/A Fog Fog
7:33 AM 41.0 °F - 41.0 °F 100% 30.27 in 1.5 mi Calm Calm - N/A   Partly Cloudy
7:35 AM 41.0 °F - 41.0 °F 100% 30.27 in 3.0 mi Calm Calm - N/A   Partly Cloudy
7:54 AM 41.0 °F - 41.0 °F 100% 30.25 in 10.0 mi Calm Calm - N/A   Clear
8:54 AM 51.1 °F - 48.9 °F 92% 30.27 in 10.0 mi Calm Calm - N/A   Clear
9:54 AM 57.0 °F - 53.1 °F 87% 30.28 in 10.0 mi SW 5.8 mph - N/A   Clear
10:54 AM 60.1 °F - 54.0 °F 80% 30.29 in 10.0 mi SW 5.8 mph - N/A   Clear
11:54 AM 64.0 °F - 53.1 °F 67% 30.29 in 10.0 mi Variable 3.5 mph - N/A   Clear
12:54 PM 68.0 °F - 51.1 °F 55% 30.27 in 10.0 mi SW 5.8 mph - N/A   Clear
1:54 PM 71.1 °F - 43.0 °F 36% 30.25 in 10.0 mi SW 6.9 mph - N/A   Clear
2:54 PM 73.9 °F - 46.9 °F 38% 30.24 in 10.0 mi SW 8.1 mph - N/A   Clear
3:54 PM 75.9 °F - 45.0 °F 33% 30.22 in 10.0 mi WSW 3.5 mph - N/A   Clear
4:54 PM 75.9 °F - 46.0 °F 35% 30.21 in 10.0 mi South 5.8 mph - N/A   Clear
5:54 PM 73.0 °F - 52.0 °F 48% 30.21 in 10.0 mi SW 6.9 mph - N/A   Clear
6:54 PM 66.9 °F - 45.0 °F 45% 30.21 in 10.0 mi WSW 9.2 mph - N/A   Clear
7:54 PM 62.1 °F - 46.0 °F 56% 30.22 in 10.0 mi SW 4.6 mph - N/A   Clear
8:54 PM 57.9 °F - 50.0 °F 75% 30.23 in 10.0 mi South 8.1 mph - N/A   Clear
9:54 PM 55.0 °F - 51.1 °F 86% 30.25 in 10.0 mi South 6.9 mph - N/A   Clear
10:54 PM 54.0 °F - 51.1 °F 90% 30.27 in 10.0 mi SE 4.6 mph - N/A   Clear
11:54 PM 51.1 °F - 48.0 °F 89% 30.26 in 10.0 mi SSE 4.6 mph - N/A   Clear